Wind_Speed
13 13 15 18 20 23 26 29 32 36 40 45 47 49 52 55 58 61 64 66 67 69 71 73 75 76 76 75 74 73 72 71 71 71 72 73 74 76 76 76 75 73 71 69
15 16 17 20 22 26 31 34 38 40 43 48 51 54 57 59 62 65 68 70 72 75 76 77 75 72 68 64 60 57 55 54 53 53 54 56 59 63 67 70 73 75 75 74
20 19 21 23 26 30 35 39 43 46 48 51 54 57 59 62 65 69 71 74 76 76 73 68 61 54 50 47 45 44 42 40 39 39 39 40 40 42 45 50 56 63 68 71
23 23 23 27 29 34 38 41 46 48 50 53 57 60 62 65 69 71 73 74 70 64 56 49 44 41 41 40 39 38 37 36 36 36 36 35 36 36 37 37 39 43 49 57
25 25 29 33 34 38 42 45 48 51 54 58 61 63 64 68 71 72 69 63 55 47 41 39 38 38 38 38 38 37 36 36 36 36 35 35 34 34 33 33 32 33 35 39
28 30 33 36 39 43 45 48 53 55 58 61 63 66 68 69 70 65 57 49 43 40 39 40 40 41 42 41 41 41 40 40 39 38 37 36 35 33 33 32 30 29 29 30
29 32 37 39 43 45 47 50 52 55 58 62 66 69 70 67 61 52 45 41 41 42 43 44 45 46 45 45 45 45 45 44 43 42 40 38 35 34 33 33 31 29 27 25
32 35 39 42 44 47 50 53 56 60 63 66 69 69 65 59 51 45 42 42 44 46 47 48 49 49 49 48 48 48 48 47 46 45 43 40 37 35 33 32 31 29 26 25
34 37 41 44 47 50 53 56 60 63 66 69 70 65 58 51 45 43 44 46 48 50 51 51 51 52 51 51 51 50 49 48 46 44 42 40 37 35 34 32 30 28 27 25
36 39 43 47 50 52 55 58 62 65 68 69 65 58 52 47 45 45 47 49 51 53 53 53 52 52 52 52 51 50 48 45 43 41 39 38 36 34 32 31 30 28 25 23
39 43 44 46 50 53 56 59 63 66 69 66 60 55 50 47 46 48 51 52 54 54 54 54 52 51 51 49 47 45 42 39 36 34 33 33 32 30 29 29 28 27 24 21
41 43 46 48 51 55 58 61 64 67 68 62 57 53 49 48 49 51 53 54 54 54 54 53 51 49 46 43 40 38 36 33 31 29 27 27 27 26 27 27 27 25 23 20
41 43 45 48 52 55 59 62 65 67 66 59 54 50 48 49 51 53 54 54 53 53 51 49 47 42 39 36 33 31 29 26 23 22 22 21 22 22 23 24 24 24 22 20
43 44 46 49 52 56 60 63 65 66 62 56 52 49 49 49 51 52 53 52 51 50 48 45 41 37 34 31 27 24 21 18 15 15 15 15 17 18 20 21 22 22 21 19
43 45 47 49 53 56 59 62 64 64 60 54 50 49 48 49 50 51 51 50 49 48 45 42 37 33 30 26 22 18 14 10 7 8 10 11 14 16 18 19 20 20 19 18
42 44 47 49 52 55 59 62 64 63 59 53 49 47 48 48 49 50 49 48 47 46 43 40 35 31 28 24 19 15 11 6 2 3 7 10 12 14 16 17 19 19 17 17
42 44 47 49 52 55 59 61 63 63 59 52 48 47 46 46 47 48 48 47 45 44 42 39 35 31 27 23 18 14 11 8 5 6 8 9 12 14 16 17 19 19 19 20
42 45 47 50 53 56 58 60 62 61 57 52 47 45 44 44 46 47 46 45 44 42 40 38 34 31 27 23 19 16 13 11 11 11 11 12 14 17 19 19 20 21 22 22
42 44 46 49 52 55 58 59 60 59 56 50 45 42 42 44 45 45 44 43 42 41 39 36 33 30 27 24 21 19 17 16 15 14 14 15 17 20 21 22 24 25 26 27
41 43 45 48 51 54 56 58 59 58 55 50 44 40 40 41 41 41 41 41 41 40 38 35 33 31 28 26 25 22 21 20 19 20 21 22 23 25 26 27 28 28 30 31
41 43 45 47 50 53 55 57 57 56 54 49 42 38 38 38 39 38 38 37 37 37 37 36 33 31 29 28 27 26 26 24 24 24 24 25 27 28 29 30 31 32 33 33
41 42 44 46 49 51 53 55 56 55 52 47 40 36 35 34 34 35 35 35 35 34 34 34 33 31 29 28 28 28 28 28 27 27 27 27 29 30 30 31 32 32 32 32
40 42 43 45 47 49 51 52 53 53 51 47 40 35 32 32 31 31 31 31 31 31 31 32 32 31 30 29 29 29 28 28 28 28 28 29 30 29 29 30 30 30 30 30
40 42 43 45 46 48 49 50 50 51 50 46 40 34 29 28 27 27 27 27 27 26 27 28 28 28 28 28 28 29 28 28 27 27 28 28 28 28 28 28 28 28 28 28
40 41 42 43 45 46 47 48 48 49 48 44 40 33 28 25 24 23 23 23 22 22 23 23 24 24 24 25 25 25 25 25 25 25 25 25 25 25 25 25 25 24 25 25
39 40 41 42 44 45 46 46 46 47 46 43 38 32 26 22 21 19 18 18 18 18 18 19 20 21 21 20 21 21 21 22 22 22 21 21 21 21 21 21 21 21 21 21
39 40 40 42 43 44 45 45 44 45 44 43 38 31 25 20 18 16 15 14 13 13 14 14 14 15 16 16 16 16 16 16 16 17 17 17 17 17 18 18 18 17 17 17
Wind_Direction
322 315 307 303 302 304 305 306 306 306 305 306 307 306 305 305 304 303 302 302 301 299 297 296 294 292 290 288 287 285 282 280 278 275 273 271 269 268 267 266 266 265 264 263
325 321 316 309 307 311 311 309 309 309 309 309 309 308 308 308 308 306 305 304 303 301 299 298 296 295 294 292 290 289 287 284 281 278 276 274 272 270 268 266 265 264 262 261
329 326 319 312 316 313 311 312 312 313 314 312 311 311 312 311 309 308 307 306 304 303 302 301 300 298 297 296 295 294 292 289 286 284 282 280 279 278 275 271 267 263 260 258
331 331 320 320 320 316 315 315 314 316 316 316 315 315 315 314 311 311 309 307 306 305 305 304 303 302 301 300 298 297 295 292 289 287 285 283 281 281 281 279 275 270 264 258
335 332 322 324 324 320 320 320 320 321 321 320 319 318 318 316 314 312 311 310 310 310 310 309 307 305 303 301 299 297 295 292 291 288 286 284 282 281 280 281 281 277 272 264
334 332 326 330 326 326 326 326 326 325 324 322 320 320 320 318 316 315 315 315 315 314 312 310 308 305 303 300 298 295 293 291 289 287 286 284 281 277 277 279 280 280 279 270
334 333 329 332 328 328 327 326 325 324 323 323 324 324 323 321 320 319 318 316 315 314 312 310 308 305 302 299 296 293 291 289 287 285 284 282 279 275 273 273 274 275 276 271
335 334 331 331 328 329 328 328 328 328 328 328 327 326 325 324 323 321 319 317 315 313 312 310 307 305 302 298 295 292 289 287 284 282 280 278 275 272 269 268 267 268 269 268
334 332 331 330 331 331 331 331 331 331 331 330 329 329 328 327 325 322 320 318 316 314 312 310 307 305 302 298 294 292 289 286 283 280 277 274 270 267 265 261 260 261 262 263
331 332 333 332 332 332 332 332 332 332 333 332 331 331 330 329 326 324 322 320 318 315 314 311 308 305 302 299 295 293 290 287 283 278 273 269 265 262 259 254 252 251 253 254
332 332 332 331 330 331 332 333 333 334 335 334 334 333 332 331 328 326 324 322 320 318 316 313 310 308 305 301 298 296 293 288 282 276 271 265 260 255 251 247 242 241 243 244
331 330 330 331 332 332 334 335 336 337 338 337 336 335 334 332 330 328 327 325 324 323 321 319 316 314 311 307 303 299 295 289 281 273 267 261 254 247 242 238 234 232 231 233
329 330 331 332 333 334 335 337 339 340 340 339 339 337 336 334 333 332 331 330 329 328 327 325 323 321 318 314 310 306 300 292 281 271 262 256 245 238 231 227 224 222 222 225
329 331 332 334 335 335 337 340 341 343 343 341 340 339 338 338 337 337 336 336 335 335 334 332 331 331 329 325 321 316 309 298 281 264 251 242 230 223 218 213 213 212 214 217
331 332 333 335 336 337 339 341 344 345 345 344 343 342 341 341 342 342 342 341 342 343 343 343 343 342 343 341 337 332 326 314 283 248 232 220 210 204 203 202 201 202 204 206
331 332 334 336 338 339 341 343 346 347 348 347 346 344 344 345 346 347 348 348 350 352 353 354 355 355 356 356 355 356 357 354 325 211 197 193 192 190 189 188 189 191 191 189
332 334 336 338 340 341 343 345 348 349 350 349 348 347 348 349 350 352 354 355 356 358 0 1 3 5 7 11 15 21 28 40 72 115 142 158 165 169 173 174 174 173 172 171
334 336 337 339 341 343 345 347 349 350 351 351 351 351 352 353 355 356 358 360 1 3 5 7 10 14 18 22 28 39 50 65 85 106 122 134 145 152 154 156 158 161 161 159
334 336 338 339 341 343 346 348 350 351 352 353 353 354 356 357 -0 1 3 5 7 11 13 15 18 22 27 33 39 50 62 73 83 94 105 118 130 138 142 144 146 147 146 146
334 336 338 340 342 344 346 348 351 352 354 355 356 356 358 0 3 6 9 11 14 17 21 23 27 32 37 44 50 56 65 74 84 94 102 111 119 126 130 133 136 138 140 142
333 335 337 340 342 343 346 348 351 353 355 356 357 359 0 2 5 9 13 15 18 22 25 29 34 38 42 49 56 61 68 79 89 96 102 109 115 121 125 129 132 134 137 139
330 334 336 339 341 343 346 348 350 353 355 357 357 358 360 3 7 10 12 17 21 26 30 34 38 42 47 54 60 66 73 80 87 94 100 106 113 119 123 127 130 133 135 138
328 332 335 338 340 343 345 347 350 352 354 356 357 358 359 2 6 11 15 19 24 29 33 36 40 46 53 59 64 70 77 83 89 94 98 103 110 115 119 124 127 131 133 135
325 329 333 336 339 342 344 346 349 351 353 355 357 357 358 1 4 9 15 18 23 28 32 37 42 48 55 62 68 72 78 84 89 93 97 102 108 114 118 122 127 130 133 135
322 326 330 333 337 340 343 345 348 351 352 353 354 354 354 357 1 6 13 18 23 29 34 40 45 51 58 65 68 70 77 83 89 93 97 101 107 113 119 124 127 130 135 137
318 322 327 330 334 338 341 344 346 349 351 352 352 352 351 351 355 360 7 14 22 29 36 41 48 53 58 64 69 72 77 83 88 93 100 106 110 114 120 127 130 133 137 141
314 319 323 328 332 336 339 342 344 346 349 350 351 350 348 346 348 352 359 7 16 26 34 40 46 50 55 61 67 73 81 88 93 98 103 112 118 121 127 131 136 139 143 148
Height
5848 5845 5844 5842 5839 5835 5830 5825 5820 5815 5808 5800 5794 5787 5779 5772 5763 5754 5745 5737 5729 5720 5711 5702 5694 5686 5679 5673 5667 5662 5659 5656 5654 5652 5651 5651 5652 5653 5654 5656 5659 5662 5666 5670
5845 5842 5840 5837 5833 5829 5824 5818 5813 5807 5801 5792 5784 5776 5767 5759 5749 5738 5728 5719 5708 5698 5688 5678 5669 5661 5654 5647 5642 5638 5635 5632 5630 5629 5628 5627 5627 5628 5630 5631 5634 5637 5642 5647
5841 5838 5835 5831 5829 5823 5817 5811 5804 5797 5792 5782 5773 5764 5755 5745 5733 5721 5710 5699 5686 5675 5664 5655 5646 5639 5634 5629 5625 5622 5619 5616 5614 5613 5611 5610 5610 5609 5609 5609 5610 5613 5616 5622
5837 5834 5830 5829 5822 5817 5810 5804 5796 5789 5780 5771 5762 5752 5742 5729 5715 5703 5690 5677 5665 5654 5645 5638 5632 5626 5621 5617 5613 5609 5606 5604 5601 5600 5599 5597 5596 5596 5595 5594 5593 5594 5595 5599
5834 5830 5825 5820 5815 5808 5802 5794 5786 5778 5768 5758 5747 5737 5728 5713 5698 5684 5670 5658 5648 5640 5633 5627 5622 5616 5611 5607 5602 5599 5596 5593 5590 5588 5587 5586 5585 5584 5583 5582 5581 5580 5581 5582
5829 5825 5820 5816 5807 5800 5794 5786 5775 5765 5756 5745 5734 5722 5712 5696 5680 5666 5653 5644 5636 5630 5624 5618 5612 5606 5600 5595 5591 5587 5584 5581 5578 5576 5575 5574 5573 5573 5572 5572 5571 5570 5570 5570
5826 5821 5814 5809 5800 5794 5787 5780 5770 5759 5748 5734 5721 5707 5692 5677 5664 5652 5642 5634 5627 5620 5614 5607 5600 5594 5588 5582 5578 5573 5569 5566 5564 5562 5561 5560 5560 5560 5560 5561 5561 5561 5561 5561
5822 5816 5810 5802 5794 5787 5779 5768 5757 5746 5734 5720 5706 5691 5676 5662 5650 5641 5633 5626 5618 5610 5603 5596 5588 5581 5574 5568 5563 5557 5553 5550 5548 5547 5546 5546 5547 5548 5548 5549 5550 5552 5552 5553
5818 5813 5804 5795 5787 5778 5768 5758 5746 5734 5722 5707 5692 5678 5664 5652 5642 5633 5624 5616 5607 5598 5590 5582 5573 5565 5557 5551 5545 5540 5536 5533 5531 5530 5529 5530 5532 5534 5536 5538 5540 5542 5544 5545
5812 5805 5798 5788 5779 5771 5761 5750 5738 5724 5710 5695 5679 5666 5654 5643 5633 5624 5615 5605 5595 5585 5576 5567 5558 5549 5540 5533 5527 5522 5518 5515 5513 5512 5513 5514 5517 5520 5523 5526 5530 5533 5535 5538
5805 5798 5792 5784 5774 5764 5754 5742 5729 5715 5699 5683 5668 5656 5644 5634 5625 5615 5605 5594 5583 5572 5561 5551 5541 5532 5523 5515 5508 5504 5500 5498 5496 5496 5497 5499 5503 5506 5511 5515 5519 5524 5528 5531
5800 5793 5785 5776 5767 5756 5745 5733 5720 5705 5690 5674 5659 5647 5636 5626 5616 5605 5594 5583 5571 5559 5547 5536 5525 5516 5507 5499 5492 5488 5485 5483 5482 5483 5485 5487 5491 5495 5500 5505 5511 5516 5521 5526
5795 5788 5779 5770 5760 5749 5737 5725 5711 5696 5680 5666 5653 5640 5629 5619 5608 5596 5584 5572 5560 5547 5535 5523 5512 5503 5494 5486 5480 5476 5473 5471 5471 5472 5474 5478 5482 5486 5492 5497 5503 5510 5515 5521
5788 5781 5773 5764 5753 5742 5730 5717 5703 5688 5673 5658 5646 5635 5624 5613 5602 5589 5576 5564 5551 5538 5525 5513 5503 5493 5485 5477 5471 5467 5464 5463 5463 5465 5467 5471 5475 5481 5486 5492 5499 5505 5511 5517
5782 5774 5766 5757 5747 5735 5723 5711 5698 5683 5668 5654 5641 5630 5619 5608 5596 5584 5571 5558 5545 5532 5520 5508 5497 5488 5480 5472 5467 5463 5460 5459 5459 5461 5464 5468 5472 5477 5483 5489 5496 5502 5508 5514
5777 5769 5760 5751 5741 5730 5718 5705 5692 5677 5663 5650 5638 5627 5616 5604 5593 5580 5567 5554 5541 5530 5517 5506 5495 5486 5479 5472 5467 5463 5461 5460 5460 5461 5464 5467 5472 5477 5482 5488 5495 5501 5507 5513
5771 5763 5754 5745 5736 5724 5712 5699 5686 5672 5659 5646 5635 5624 5613 5603 5591 5579 5566 5554 5541 5530 5519 5508 5498 5489 5482 5475 5470 5467 5464 5463 5463 5464 5467 5470 5474 5478 5484 5489 5495 5501 5508 5515
5765 5757 5748 5738 5729 5719 5707 5695 5682 5669 5656 5644 5633 5622 5612 5601 5590 5579 5567 5556 5544 5533 5522 5512 5503 5494 5487 5481 5476 5472 5470 5469 5469 5470 5472 5475 5478 5482 5487 5493 5499 5505 5511 5517
5760 5752 5744 5734 5724 5714 5703 5692 5679 5667 5654 5642 5632 5622 5612 5602 5591 5580 5570 5559 5548 5538 5528 5518 5510 5502 5495 5489 5484 5481 5479 5477 5477 5477 5479 5481 5484 5488 5493 5499 5505 5511 5517 5523
5755 5748 5740 5730 5721 5710 5700 5689 5677 5665 5653 5642 5631 5622 5613 5604 5594 5585 5575 5565 5554 5544 5535 5527 5519 5512 5505 5500 5495 5491 5489 5487 5486 5487 5488 5490 5493 5497 5501 5507 5513 5519 5525 5532
5750 5743 5735 5727 5717 5707 5697 5686 5675 5663 5652 5642 5632 5623 5615 5606 5598 5589 5581 5572 5563 5554 5545 5537 5529 5522 5516 5511 5507 5503 5500 5499 5498 5498 5499 5501 5504 5508 5512 5517 5523 5529 5535 5542
5745 5739 5731 5723 5714 5705 5694 5684 5673 5662 5651 5642 5632 5624 5617 5610 5602 5594 5586 5578 5570 5563 5555 5548 5541 5534 5528 5523 5519 5516 5514 5512 5511 5511 5512 5514 5517 5520 5524 5529 5534 5540 5545 5551
5740 5734 5727 5719 5711 5702 5692 5682 5671 5661 5651 5642 5633 5626 5619 5612 5605 5599 5592 5585 5578 5572 5565 5558 5552 5546 5542 5537 5533 5530 5527 5526 5525 5526 5526 5528 5530 5533 5537 5541 5546 5550 5556 5561
5735 5729 5722 5715 5707 5699 5690 5680 5671 5660 5650 5641 5633 5626 5620 5614 5608 5602 5596 5590 5585 5579 5574 5569 5563 5558 5554 5550 5547 5544 5542 5540 5540 5540 5540 5541 5543 5546 5549 5553 5557 5561 5566 5570
5729 5723 5717 5710 5703 5695 5687 5678 5669 5660 5650 5641 5633 5626 5621 5615 5611 5605 5600 5595 5591 5586 5582 5577 5573 5569 5565 5562 5559 5557 5555 5553 5553 5553 5553 5554 5556 5558 5561 5564 5568 5571 5575 5579
5723 5718 5712 5705 5699 5691 5683 5675 5666 5658 5649 5641 5634 5627 5621 5616 5612 5608 5603 5599 5595 5591 5588 5584 5581 5578 5574 5571 5569 5567 5566 5565 5564 5564 5564 5565 5567 5569 5571 5573 5576 5579 5582 5586
5716 5711 5706 5700 5693 5686 5679 5671 5664 5656 5648 5640 5633 5626 5621 5616 5612 5608 5605 5601 5598 5595 5592 5589 5587 5584 5582 5579 5577 5576 5575 5574 5573 5573 5573 5574 5575 5577 5579 5581 5583 5586 5589 5591